GEC8223 MMMY-EDDF

Flight info

Callsign GEC8223
Flight time N/A
Altitude 30000
Route URTAN1A URTAN UJ11E NLD DCT KH03C/N0492F310 DCT KF21E DCT KM30G DCT KM39I DCT KK48K DCT ENL DCT VHP/N0485F330 DCT DJB DCT DKK DCT KB03E DCT YQX DCT ELSIR/M082F350 DCT 50N050W 52N040W 53N030W 53N020W DCT MALOT DCT GISTI/N0476F350 DCT MORAG DCT KAMJU DCT REDFA DCT TACHA DCT NOLRU DCT DIXAT DIXAT1A
Aircraft B77L/H-SDE1E2E3FGHIJ2J3J4J5M1RWXY/LB1D1

Departure

Time 2026-04-15 03:35
Airport Monterrey International Airport (MMMY)

Arrival

Time N/A
Airport Frankfurt Main Airport (EDDF)
Time Latitude Longitude Altitude Speed Heading
2026-04-15 03:18 25.78026 -100.11565 1288 ft 0 kts 301°
2026-04-15 03:30 25.78027 -100.11565 1284 ft 1 kts 306°
2026-04-15 03:31 25.78037 -100.11567 1289 ft 2 kts 354°
2026-04-15 03:31 25.78057 -100.11556 1288 ft 6 kts 26°
2026-04-15 03:31 25.78097 -100.11563 1289 ft 7 kts 326°
2026-04-15 03:31 25.78133 -100.11608 1287 ft 8 kts 304°
2026-04-15 03:32 25.78164 -100.11662 1288 ft 8 kts 301°
2026-04-15 03:32 25.78194 -100.11716 1289 ft 8 kts 301°
2026-04-15 03:32 25.78223 -100.11769 1290 ft 8 kts 301°
2026-04-15 03:32 25.78269 -100.11795 1291 ft 8 kts
2026-04-15 03:33 25.78327 -100.11769 1292 ft 9 kts 27°
2026-04-15 03:33 25.78384 -100.11732 1293 ft 9 kts 33°
2026-04-15 03:33 25.78390 -100.11668 1292 ft 9 kts 112°
2026-04-15 03:33 25.78384 -100.11656 1292 ft 0 kts 118°
2026-04-15 03:34 25.78378 -100.11643 1292 ft 13 kts 118°
2026-04-15 03:34 25.78190 -100.11302 1288 ft 91 kts 121°
2026-04-15 03:34 25.77732 -100.10470 1272 ft 160 kts 122°
2026-04-15 03:34 25.77071 -100.09286 1483 ft 187 kts 119°
2026-04-15 03:35 25.76411 -100.08060 2085 ft 187 kts 119°
2026-04-15 03:35 25.75795 -100.06846 2888 ft 180 kts 119°
2026-04-15 03:35 25.75163 -100.05591 3191 ft 196 kts 120°
2026-04-15 03:35 25.74463 -100.04212 3390 ft 217 kts 121°
2026-04-15 03:36 25.73690 -100.02696 3769 ft 231 kts 121°
2026-04-15 03:36 25.72874 -100.01103 4249 ft 243 kts 122°
2026-04-15 03:36 25.72019 -99.99437 4785 ft 253 kts 122°
2026-04-15 03:36 25.71137 -99.97721 5401 ft 258 kts 122°
2026-04-15 03:37 25.70426 -99.95907 5940 ft 267 kts 103°
2026-04-15 03:37 25.70529 -99.93787 6409 ft 287 kts 76°
2026-04-15 03:37 25.71523 -99.91823 6997 ft 300 kts 50°
2026-04-15 03:37 25.73253 -99.90460 7495 ft 314 kts 21°
2026-04-15 03:38 25.75372 -99.89983 8176 ft 315 kts
2026-04-15 03:38 25.77591 -99.89971 8756 ft 321 kts 357°
2026-04-15 03:38 25.79795 -99.90190 9641 ft 316 kts 352°
2026-04-15 03:38 25.81961 -99.90662 10252 ft 320 kts 344°
2026-04-15 03:39 25.84128 -99.91445 10510 ft 337 kts 337°
2026-04-15 03:39 25.86308 -99.92595 10669 ft 357 kts 329°
2026-04-15 03:39 25.88453 -99.94122 10817 ft 376 kts 322°
2026-04-15 03:39 25.90493 -99.95933 11056 ft 383 kts 324°
2026-04-15 03:40 25.92965 -99.97131 11369 ft 397 kts 349°
2026-04-15 03:40 25.95752 -99.97144 11890 ft 405 kts 10°
2026-04-15 03:40 25.98446 -99.96248 12635 ft 407 kts 24°
2026-04-15 03:40 26.00918 -99.94675 13288 ft 409 kts 32°
2026-04-15 03:41 26.03341 -99.92975 13930 ft 412 kts 31°
2026-04-15 03:41 26.05799 -99.91306 14500 ft 417 kts 30°
2026-04-15 03:41 26.08268 -99.89651 15078 ft 419 kts 31°
2026-04-15 03:41 26.10784 -99.87964 15627 ft 423 kts 30°
2026-04-15 03:42 26.13307 -99.86271 16248 ft 425 kts 30°
2026-04-15 03:42 26.15853 -99.84559 16762 ft 430 kts 30°
2026-04-15 03:42 26.18438 -99.82820 17212 ft 436 kts 30°
2026-04-15 03:42 26.21047 -99.81065 17709 ft 440 kts 30°
2026-04-15 03:43 26.23648 -99.79314 18226 ft 444 kts 30°
2026-04-15 03:43 26.26308 -99.77524 18649 ft 448 kts 30°
2026-04-15 03:43 26.28993 -99.75714 19101 ft 452 kts 30°
2026-04-15 03:43 26.31691 -99.73895 19558 ft 455 kts 30°